[[{"header":{"parameterUnit":"m.s-1","parameterCategory":1,"la1":30.2991,"la2":30.254,"lo1":-89.0895,"lo2":-89.0444,"dy":0.0017,"dx":0.0017,"nx":28,"ny":28,"refTime":"2024-08-15T09:00:00:Z","depth":0,"parameterNumber":2,"parameterNumberName":"U-component_of_WINDS"},"data":[0,0,0,0,0,0,0,0,0,0,0,0,0,0,0,0,0,0,0,0,0,0,0,0,0,0,0,0,0,0,0,0,0,0,0,0,0,0,0,0,0,0,0,0,0,0,0,0,0,0,0,0,0,0,0,0,0,0,0.5273,0.5271,0,0.5121,0.5119,0.5117,0.5027,0.5026,0.5026,0.5026,0.4871,0.4867,0.4863,0,0,0,0,0,0,0,0,0,0,0,0,0,0.5487,0.5483,0.5273,0.5271,0.5269,0.5121,0.5119,0.5117,0.5027,0.5026,0.5026,0.5025,0.4872,0.4868,0.4863,0,0,0,0,0,0,0,0,0,0,0,0,0,0.537,0.5482,0.5273,0.5206,0.5199,0.5121,0.5119,0.5116,0.5027,0.5026,0.5026,0.5025,0.4873,0.4868,0.4862,0.484,0,0,0.4845,0.4843,0,0,0,0,0,0,0,0,0.5377,0.5362,0.5218,0.5211,0.5202,0.5092,0.5137,0.5024,0.5027,0.5092,0.5026,0.5025,0.4945,0.4933,0.4906,0.4833,0.4826,0.4845,0.4841,0.4839,0.4837,0,0,0,0,0,0,0,0.5385,0.5368,0.5213,0.5216,0.5206,0.5184,0.5167,0.5115,0.5024,0.5087,0.508,0.5063,0.494,0.4912,0.4902,0.4824,0.4845,0.484,0.4836,0.4834,0.4725,0.4725,0,0,0,0,0,0,0.5404,0.5376,0.5217,0.5208,0.529,0.5181,0.5162,0.5128,0.5024,0.5008,0.5064,0.5059,0.4922,0.4909,0.4896,0.4863,0.4839,0.4834,0.483,0.4724,0.4725,0.4725,0,0,0,0,0,0,0.5409,0.539,0.5224,0.529,0.5267,0.5178,0.5141,0.5125,0.5097,0.5007,0.499,0.5051,0.4921,0.4904,0.4855,0.4856,0.4831,0.4826,0.4724,0.4724,0.4725,0.4797,0,0,0,0,0,0,0.5415,0.5393,0.5383,0.529,0.5264,0.5185,0.5141,0.5123,0.5087,0.508,0.4991,0.4975,0.4919,0.4864,0.4849,0.4848,0.4822,0.4723,0.4724,0.4725,0.4794,0.48,0.4805,0,0,0,0,0,0.5423,0.5409,0.5383,0.5364,0.525,0.5185,0.517,0.5105,0.5088,0.5077,0.502,0.4978,0.4859,0.4859,0.4842,0.484,0.4723,0.4724,0.4725,0.4792,0.4799,0.4805,0,0,0,0,0,0,0.5504,0.5396,0.5365,0.5321,0.5263,0.517,0.5155,0.5115,0.506,0.5056,0.4978,0.4959,0.4917,0.4873,0.4876,0.4813,0.4786,0.4784,0.4843,0.4849,0.4855,0.4866,0.4817,0,0,0,0,0,0.5517,0.5473,0.5381,0.5351,0.5323,0.5245,0.5214,0.5169,0.5105,0.508,0.5019,0.4959,0.4908,0.4876,0.4824,0.4787,0.4767,0.4777,0.4783,0.4788,0.4787,0.4765,0.4768,0.4729,0.4729,0.4728,0,0,0.5543,0.5479,0.5456,0.5366,0.5315,0.5272,0.5224,0.518,0.5147,0.5074,0.5023,0.4976,0.4905,0.4862,0.484,0.4824,0.4794,0.4789,0.4794,0.479,0.4766,0.477,0.4773,0.4729,0.4729,0.4729,0,0,0.5569,0.5515,0.5484,0.5435,0.5359,0.5307,0.53,0.5212,0.5178,0.5126,0.507,0.5031,0.4944,0.4895,0.4859,0.4867,0.4827,0.4852,0.4882,0.4861,0.4864,0.4866,0.4869,0.4871,0.4852,0.4852,0.4852,0,0.5611,0.5543,0.5474,0.5433,0.5395,0.5327,0.5296,0.5251,0.5162,0.5138,0.5122,0.5012,0.4959,0.4904,0.4906,0.4879,0.4869,0.4862,0.4869,0.4871,0.4872,0.4874,0.4875,0.4855,0.4855,0.4855,0.4854,0,0.5598,0.5552,0.5536,0.5452,0.5413,0.5377,0.5304,0.5272,0.5231,0.5181,0.5129,0.5063,0.4997,0.498,0.494,0.492,0.4912,0.4884,0.4855,0.488,0.4881,0.4881,0.4861,0.4859,0.4858,0.4857,0,0,0.567,0.5549,0.5544,0.5505,0.5417,0.538,0.5342,0.5277,0.5251,0.5193,0.5159,0.5088,0.5061,0.502,0.4973,0.4955,0.4966,0.4928,0.4925,0.4938,0.494,0.4962,0.4964,0.4939,0.4939,0.4939,0.4946,0,0.5682,0.5609,0.5547,0.5497,0.5454,0.5388,0.5355,0.5297,0.525,0.5206,0.5153,0.5104,0.5072,0.5047,0.5026,0.4969,0.4965,0.4968,0.4907,0.4905,0.4927,0.4964,0.4987,0.4997,0.4946,0.4946,0.4946,0,0.5687,0.5631,0.5577,0.5493,0.5473,0.5444,0.5379,0.5339,0.5272,0.5239,0.5194,0.5145,0.5102,0.5079,0.5018,0.5021,0.4993,0.4961,0.496,0.4952,0.4927,0.4957,0.4999,0.5001,0.4945,0.4945,0.4945,0,0.5745,0.5656,0.5612,0.5581,0.5483,0.5464,0.5422,0.5355,0.532,0.5264,0.5241,0.5181,0.5148,0.5103,0.5039,0.5028,0.4986,0.4957,0.4957,0.4959,0.4951,0.4952,0.4989,0.4933,0.4933,0.4933,0.4933,0,0.5765,0.5735,0.5637,0.561,0.5575,0.5503,0.547,0.5422,0.5364,0.5327,0.5267,0.5233,0.5152,0.5109,0.5059,0.5017,0.5003,0.4974,0.4962,0.498,0.4983,0.496,0.4958,0.4933,0.4933,0.4933,0.4933,0,0.5824,0.5757,0.5705,0.5616,0.5593,0.5571,0.5495,0.5467,0.5416,0.537,0.5355,0.5275,0.5221,0.5154,0.5079,0.5045,0.5009,0.4989,0.5031,0.5024,0.5028,0.5028,0.505,0.505,0.4995,0.4996,0.4996,0,0.5841,0.5816,0.5725,0.5696,0.5656,0.561,0.5574,0.5503,0.5468,0.5391,0.5372,0.5314,0.5264,0.5181,0.5117,0.5059,0.5038,0.5049,0.5029,0.5048,0.5038,0.504,0.5038,0.5055,0.5056,0.5057,0.5057,0,0.588,0.5848,0.5798,0.5738,0.5697,0.5645,0.5591,0.5571,0.5489,0.5453,0.5397,0.5359,0.5282,0.5225,0.5159,0.5116,0.5073,0.5064,0.5061,0.508,0.5105,0.5092,0.5046,0.5064,0.5063,0.5063,0.5063,0.5062,0.5918,0.5893,0.5825,0.5772,0.5724,0.5675,0.5644,0.559,0.5542,0.5474,0.5435,0.5381,0.5316,0.5223,0.5182,0.5139,0.5122,0.5118,0.5117,0.5117,0.5123,0.5112,0.5126,0.5126,0.5126,0.5125,0.5125,0,0.5953,0.5906,0.5858,0.5785,0.5743,0.5706,0.5645,0.5613,0.5566,0.5509,0.546,0.5397,0.5342,0.5273,0.5213,0.5192,0.5171,0.5179,0.5179,0.517,0.5141,0.5149,0.5197,0.5197,0.5197,0.5197,0.5197,0.5197,0.5967,0.5923,0.5883,0.5815,0.5768,0.5715,0.5683,0.5638,0.5591,0.5523,0.5477,0.5432,0.5371,0.5306,0.5254,0.5235,0.5216,0.523,0.5205,0.5179,0.5172,0.5166,0.5174,0.5226,0.5226,0.5238,0.5238,0.5238]},{"header":{"parameterUnit":"m.s-1","parameterCategory":1,"la1":30.2991,"la2":30.254,"lo1":-89.0895,"lo2":-89.0444,"dy":0.0017,"dx":0.0017,"nx":28,"ny":28,"refTime":"2024-08-15T09:00:00:Z","depth":0,"parameterNumber":3,"parameterNumberName":"V-component_of_WINDS"},"data":[0,0,0,0,0,0,0,0,0,0,0,0,0,0,0,0,0,0,0,0,0,0,0,0,0,0,0,0,0,0,0,0,0,0,0,0,0,0,0,0,0,0,0,0,0,0,0,0,0,0,0,0,0,0,0,0,0,0,-1.7504,-1.7504,0,-1.7506,-1.7506,-1.7506,-1.7473,-1.7472,-1.7471,-1.747,-1.7472,-1.7473,-1.7474,0,0,0,0,0,0,0,0,0,0,0,0,0,-1.7473,-1.7474,-1.7504,-1.7504,-1.7504,-1.7506,-1.7506,-1.7506,-1.7473,-1.7472,-1.7471,-1.747,-1.7472,-1.7473,-1.7474,0,0,0,0,0,0,0,0,0,0,0,0,0,-1.7482,-1.7474,-1.7504,-1.7488,-1.7486,-1.7506,-1.7506,-1.7506,-1.7473,-1.7472,-1.7471,-1.7469,-1.7472,-1.7473,-1.7474,-1.7509,0,0,-1.7478,-1.7479,0,0,0,0,0,0,0,0,-1.7482,-1.7483,-1.749,-1.7489,-1.7487,-1.7488,-1.7496,-1.7507,-1.7474,-1.7478,-1.747,-1.7469,-1.7479,-1.7479,-1.7483,-1.751,-1.751,-1.7479,-1.7479,-1.748,-1.748,0,0,0,0,0,0,0,-1.7481,-1.7483,-1.7505,-1.749,-1.7489,-1.7481,-1.7481,-1.7498,-1.7486,-1.7478,-1.7475,-1.7476,-1.7478,-1.7481,-1.7482,-1.751,-1.7479,-1.748,-1.7481,-1.7481,-1.7568,-1.7569,0,0,0,0,0,0,-1.7482,-1.7483,-1.7505,-1.7505,-1.7481,-1.7483,-1.7482,-1.7489,-1.7486,-1.7484,-1.7477,-1.7474,-1.748,-1.7481,-1.7482,-1.7525,-1.748,-1.7481,-1.7482,-1.7566,-1.7568,-1.757,0,0,0,0,0,0,-1.7482,-1.7485,-1.7505,-1.7493,-1.7495,-1.7485,-1.7492,-1.749,-1.7493,-1.7485,-1.7483,-1.7483,-1.7479,-1.748,-1.7504,-1.7525,-1.7482,-1.7483,-1.7565,-1.7567,-1.7569,-1.761,0,0,0,0,0,0,-1.7481,-1.7485,-1.7497,-1.7494,-1.7496,-1.7525,-1.7494,-1.7491,-1.7496,-1.7492,-1.749,-1.7489,-1.7478,-1.7502,-1.7505,-1.7526,-1.7484,-1.7563,-1.7566,-1.7568,-1.7606,-1.7613,-1.7619,0,0,0,0,0,-1.748,-1.7508,-1.7498,-1.7501,-1.7511,-1.7527,-1.7528,-1.7515,-1.7498,-1.7511,-1.7506,-1.7489,-1.7522,-1.7504,-1.7508,-1.7529,-1.7561,-1.7565,-1.7568,-1.7604,-1.7612,-1.7619,0,0,0,0,0,0,-1.7515,-1.7507,-1.7496,-1.7524,-1.7526,-1.7521,-1.7537,-1.7523,-1.7531,-1.7527,-1.7511,-1.751,-1.7537,-1.7535,-1.7516,-1.7564,-1.7539,-1.7543,-1.7564,-1.7572,-1.7578,-1.7578,-1.7485,0,0,0,0,0,-1.7525,-1.7538,-1.7531,-1.7556,-1.7558,-1.7548,-1.7554,-1.7543,-1.7545,-1.7546,-1.7542,-1.7545,-1.7556,-1.7564,-1.7573,-1.7606,-1.7606,-1.7622,-1.7628,-1.7634,-1.7638,-1.7657,-1.7665,-1.7581,-1.7581,-1.7581,0,0,-1.7548,-1.7545,-1.7554,-1.7563,-1.7564,-1.7578,-1.7548,-1.7564,-1.7575,-1.7548,-1.757,-1.7568,-1.757,-1.7599,-1.7611,-1.7598,-1.7661,-1.7638,-1.7642,-1.7643,-1.7661,-1.7669,-1.7676,-1.7583,-1.7583,-1.7583,0,0,-1.7596,-1.7595,-1.7617,-1.7618,-1.762,-1.7613,-1.7618,-1.7616,-1.7614,-1.7635,-1.7616,-1.7629,-1.7648,-1.7651,-1.7655,-1.7706,-1.7692,-1.771,-1.7742,-1.7761,-1.7768,-1.7774,-1.7794,-1.7801,-1.7714,-1.7714,-1.7714,0,-1.7624,-1.7644,-1.763,-1.7648,-1.7653,-1.763,-1.7653,-1.7655,-1.7659,-1.7664,-1.7649,-1.7674,-1.7673,-1.7703,-1.7716,-1.7719,-1.7726,-1.771,-1.7768,-1.7774,-1.7779,-1.7798,-1.7806,-1.7716,-1.7716,-1.7716,-1.7715,0,-1.768,-1.7694,-1.7712,-1.7718,-1.7725,-1.7745,-1.7734,-1.7743,-1.7733,-1.7728,-1.7752,-1.775,-1.776,-1.7766,-1.7756,-1.7796,-1.7788,-1.7771,-1.7745,-1.779,-1.7808,-1.7815,-1.772,-1.7719,-1.7718,-1.7717,0,0,-1.7749,-1.7748,-1.7755,-1.7758,-1.7759,-1.777,-1.779,-1.78,-1.7809,-1.7813,-1.7831,-1.7848,-1.7833,-1.7838,-1.7827,-1.7844,-1.7888,-1.7825,-1.7825,-1.7839,-1.7934,-1.7948,-1.7956,-1.7877,-1.7879,-1.788,-1.7934,0,-1.7798,-1.7832,-1.782,-1.7855,-1.7869,-1.7848,-1.7866,-1.7869,-1.7865,-1.7877,-1.7873,-1.7886,-1.7864,-1.7868,-1.7883,-1.7879,-1.7907,-1.7875,-1.7895,-1.7896,-1.7897,-1.7965,-1.798,-1.8031,-1.7941,-1.7942,-1.7943,0,-1.7859,-1.7867,-1.7904,-1.7904,-1.791,-1.7926,-1.7935,-1.7946,-1.795,-1.7946,-1.7952,-1.7939,-1.796,-1.7933,-1.7962,-1.7941,-1.7948,-1.7948,-1.795,-1.7952,-1.7923,-1.7972,-1.8047,-1.8056,-1.7953,-1.7953,-1.7952,0,-1.7909,-1.7929,-1.7954,-1.7957,-1.7957,-1.7969,-1.797,-1.7972,-1.798,-1.7988,-1.7993,-1.8003,-1.801,-1.8018,-1.8009,-1.799,-1.804,-1.8012,-1.8039,-1.8039,-1.8051,-1.8051,-1.8131,-1.8053,-1.8053,-1.8053,-1.8053,0,-1.7966,-1.799,-1.7977,-1.7992,-1.8019,-1.8005,-1.8032,-1.803,-1.8033,-1.8048,-1.803,-1.8045,-1.8031,-1.8045,-1.8038,-1.8064,-1.8066,-1.8065,-1.8063,-1.8068,-1.8068,-1.8073,-1.807,-1.8055,-1.8055,-1.8054,-1.8054,0,-1.8027,-1.8018,-1.8045,-1.8043,-1.8044,-1.8064,-1.8063,-1.8078,-1.8073,-1.8093,-1.8097,-1.809,-1.8106,-1.8097,-1.8113,-1.8108,-1.8143,-1.8135,-1.8142,-1.8141,-1.8168,-1.8167,-1.8256,-1.8268,-1.8181,-1.8182,-1.8182,0,-1.8064,-1.8082,-1.8083,-1.8092,-1.8095,-1.811,-1.8118,-1.8105,-1.8115,-1.8121,-1.8136,-1.815,-1.8161,-1.8188,-1.8184,-1.8197,-1.819,-1.8221,-1.8192,-1.8197,-1.8193,-1.8193,-1.8196,-1.8227,-1.8228,-1.8229,-1.8229,0,-1.8132,-1.8128,-1.814,-1.8152,-1.8162,-1.817,-1.8177,-1.8186,-1.8174,-1.8185,-1.8201,-1.821,-1.8227,-1.8243,-1.8254,-1.8255,-1.8241,-1.8238,-1.8246,-1.8251,-1.8256,-1.8256,-1.816,-1.8237,-1.8236,-1.8235,-1.8235,-1.8235,-1.8184,-1.82,-1.8204,-1.8218,-1.8222,-1.823,-1.8244,-1.8242,-1.8255,-1.8269,-1.826,-1.828,-1.8285,-1.8299,-1.8302,-1.8318,-1.8306,-1.8316,-1.8319,-1.8322,-1.8327,-1.8252,-1.832,-1.832,-1.8319,-1.8319,-1.8319,0,-1.8253,-1.8255,-1.8268,-1.8279,-1.8291,-1.8277,-1.8284,-1.8295,-1.8313,-1.8318,-1.833,-1.835,-1.8365,-1.8363,-1.8377,-1.8391,-1.8385,-1.8395,-1.8395,-1.8396,-1.8335,-1.8329,-1.84,-1.84,-1.84,-1.84,-1.84,-1.84,-1.829,-1.8317,-1.8314,-1.8343,-1.8344,-1.8364,-1.837,-1.8377,-1.8381,-1.8405,-1.8417,-1.8416,-1.8419,-1.8434,-1.8447,-1.8446,-1.8453,-1.8466,-1.8463,-1.8408,-1.84,-1.8392,-1.8386,-1.8467,-1.8468,-1.8523,-1.8523,-1.8523]}]]